SCP
0 0 0 0 0 0 0 0 0 0 0 0 0 0 0 0 0 0 0 0 0 0 0 0 0 0 0 0 0 0 0 0 1 2 2 1 0 0 0 0 0 0 0 0
0 0 0 0 0 0 0 0 0 0 0 0 0 0 0 0 0 0 0 0 0 0 0 0 0 0 0 0 0 0 0 0 0 1 3 3 3 2 1 0 1 1 0 0
0 0 0 0 0 0 0 0 0 0 0 0 0 0 -0 0 0 0 0 0 0 0 0 0 0 0 0 0 0 0 0 0 0 0 0 2 3 3 3 2 2 2 1 1
0 0 0 0 0 0 0 0 0 0 0 0 0 -0 0 0 0 0 0 0 0 0 0 0 0 0 0 0 0 0 0 0 0 0 0 1 1 2 3 3 2 4 2 2
0 0 0 0 0 0 0 0 0 0 0 0 0 -0 -0 -0 0 0 0 0 0 0 0 0 0 0 0 0 0 0 0 0 0 0 0 0 0 1 2 3 3 3 3 2
0 0 0 0 0 0 0 0 0 0 0 0 0 0 -0 -0 -0 -0 0 0 0 0 0 0 0 0 0 0 0 0 0 0 0 0 0 0 1 1 1 2 2 3 3 2
0 0 0 0 0 0 0 0 0 0 0 0 0 0 0 0 -0 -0 0 0 0 0 0 0 0 0 0 0 0 0 0 0 0 0 0 0 0 1 2 2 3 3 3 3
0 0 0 0 0 0 0 0 0 0 0 0 0 0 0 0 0 0 0 0 0 0 0 0 0 0 0 0 0 0 0 0 0 0 0 0 0 0 1 2 2 1 2 3
0 0 0 0 0 0 0 0 0 0 0 0 0 0 0 0 -0 -0 0 0 0 0 0 0 0 0 0 0 0 0 0 0 0 0 0 0 0 0 0 2 2 2 2 2
0 0 0 0 0 0 0 0 0 0 0 0 0 0 0 0 0 0 0 0 0 0 0 0 0 0 0 0 0 0 0 0 0 0 0 0 0 0 0 1 1 1 1 1
0 0 0 0 0 0 0 0 0 0 0 0 0 0 0 0 0 0 0 0 0 0 0 0 0 0 0 0 0 0 0 0 0 0 0 0 0 0 0 0 0 1 1 1
0 0 0 0 0 0 0 0 0 0 0 0 0 0 0 -0 -0 0 0 0 0 0 0 0 0 0 0 0 -0 0 0 0 0 0 0 0 0 0 0 0 0 1 1 1
0 0 0 0 0 0 0 0 0 0 0 0 0 0 0 0 0 0 0 0 0 0 0 0 0 0 0 0 0 0 0 0 0 0 0 0 1 0 0 0 1 1 1 1
0 0 0 0 0 0 0 0 0 0 0 0 0 -0 -0 -0 0 0 0 0 0 0 0 0 0 0 0 0 0 0 0 0 -0 0 0 0 1 1 0 0 1 1 2 2
0 -0 -0 -0 -0 0 0 0 0 0 0 0 -0 -0 -0 -0 0 0 0 0 0 0 0 0 -0 -0 0 0 0 0 -0 0 -0 0 0 0 1 1 0 0 1 2 2 2
0 0 0 0 0 0 0 0 0 -0 0 0 -0 -0 -0 -0 0 0 0 0 0 0 0 0 0 0 0 0 0 0 -0 0 -0 0 -0 0 1 1 1 1 2 2 2 2
0 0 0 0 0 0 0 -0 -0 0 0 0 0 0 0 0 0 0 0 0 0 -0 0 0 -0 -0 -0 -0 0 0 0 0 0 0 0 0 1 1 1 2 2 2 2 3
0 0 0 0 0 0 0 0 0 0 0 0 0 0 0 0 0 0 0 0 0 -0 -0 -0 -0 -0 -0 -0 -0 0 0 0 0 0 0 0 1 0 1 2 3 3 3 2
-0 -0 0 0 0 0 -0 0 0 0 0 0 0 0 0 0 0 0 0 0 0 -0 -0 -0 -0 -0 -0 -0 0 0 0 0 0 0 0 0 1 1 1 2 3 3 3 2
0 -0 0 0 0 0 0 0 0 0 -0 0 0 0 0 0 -0 0 0 0 -0 -0 0 0 0 0 -0 0 0 0 -0 0 0 0 0 0 1 1 1 2 2 2 1 0
0 0 0 0 0 0 0 0 0 0 0 0 0 0 0 0 0 -0 -0 -0 -0 -0 0 0 0 0 0 0 0 -0 0 0 0 0 0 1 1 1 1 1 1 0 0 0
0 0 0 0 0 0 0 0 0 0 -0 0 0 0 0 -0 -0 -0 -0 0 0 -0 -0 -0 0 -0 0 -0 0 0 -0 0 0 0 0 1 1 1 1 0 0 0 0 0
0 0 0 0 0 0 0 -0 -0 0 -0 -0 0 0 0 -0 -0 0 -0 -0 -0 -0 -0 -0 -0 -0 -0 0 0 0 0 0 0 0 0 0 0 0 0 0 0 0 0 0
0 0 0 0 0 0 0 0 0 0 0 0 0 0 -0 0 -0 -0 -0 -0 -0 -0 -0 -0 -0 -0 -0 -0 -0 -0 0 0 0 0 0 0 0 0 0 0 0 0 0 0
0 0 0 0 0 0 0 0 0 0 0 -0 -0 0 0 -0 -0 -0 -0 -0 -0 -0 -0 -0 -0 -0 -0 -0 -0 0 0 0 0 0 0 0 0 0 0 0 0 0 0 0
0 0 0 0 0 0 0 -0 -0 -0 0 0 0 0 0 0 -0 -0 -0 -0 -0 -0 -0 -0 -0 -0 -0 0 0 0 0 0 0 0 0 0 0 0 0 0 0 0 0 0
Wind_Speed_500mb
2 10 14 12 19 7 5 6 8 5 3 19 20 26 24 32 28 25 25 30 26 17 20 21 25 27 30 24 21 21 31 30 39 42 45 57 66 78 90 91 87 85 82 62
7 15 9 8 6 11 12 10 9 11 11 14 26 34 30 27 20 20 14 13 30 33 21 29 35 32 33 37 33 28 21 28 36 43 46 49 51 58 65 76 89 95 86 76
12 2 8 6 9 13 9 12 9 9 10 13 19 25 3 7 14 6 11 11 14 18 20 21 20 28 34 37 41 42 37 29 32 37 41 47 52 57 57 63 73 91 93 90
10 2 12 7 11 13 14 15 8 8 11 14 5 13 13 7 9 12 19 15 17 16 16 22 28 27 28 29 32 44 48 45 36 34 39 48 59 64 64 63 65 64 77 89
1 10 14 14 8 13 2 10 5 7 18 9 11 11 2 11 11 14 15 10 20 17 15 21 22 36 42 40 38 37 42 53 51 45 41 45 54 68 72 71 72 75 76 84
23 5 7 9 8 6 11 7 1 1 5 10 3 8 8 12 15 9 18 22 27 22 28 31 34 41 43 41 40 43 42 44 53 53 51 51 53 58 72 80 82 80 79 80
11 9 3 7 11 6 7 1 8 7 8 5 5 15 18 15 22 21 25 36 25 28 39 41 41 42 42 46 45 45 44 46 44 51 59 59 59 55 65 76 87 91 78 77
13 16 14 8 9 9 8 6 6 9 8 12 9 17 4 9 12 24 30 23 20 32 34 33 38 38 38 49 52 50 46 49 50 50 54 60 64 61 60 71 77 83 78 74
6 12 1 6 3 5 9 12 5 9 3 12 12 14 18 19 15 8 7 7 27 38 43 37 31 24 35 48 54 55 46 49 50 53 54 58 66 65 61 63 77 79 76 75
12 10 2 5 3 2 10 17 6 4 8 11 12 23 18 16 20 11 14 21 31 40 43 45 26 25 31 40 49 53 51 49 44 50 54 56 60 68 66 64 78 82 80 67
6 8 5 8 13 28 12 12 4 4 7 8 12 10 7 10 14 21 23 25 37 44 40 42 35 32 33 40 44 54 57 48 43 41 49 57 57 65 71 66 70 66 57 48
19 9 20 21 6 7 11 20 22 14 13 10 9 21 8 18 10 12 34 51 48 41 44 42 37 40 40 39 48 55 59 59 55 50 45 54 56 63 74 69 65 52 49 50
8 8 6 6 3 3 10 16 19 17 7 25 20 19 8 12 30 52 51 49 44 40 43 47 48 48 46 44 47 52 55 61 63 61 50 52 58 65 74 72 64 57 57 56
4 10 18 20 19 1 11 12 20 27 20 28 39 64 46 50 48 41 47 39 34 39 40 52 56 49 47 50 52 55 59 55 70 65 61 56 60 64 72 73 72 65 63 57
10 23 28 37 38 34 37 36 37 40 43 38 44 52 47 46 41 42 35 32 40 41 45 51 49 45 49 54 62 61 61 57 68 67 68 61 53 61 68 75 75 69 60 55
6 12 9 27 22 27 39 44 50 50 48 48 53 57 57 57 48 30 33 33 41 51 60 57 50 53 56 62 70 70 70 63 64 67 66 54 40 52 67 73 72 66 59 55
8 10 11 23 13 15 25 50 50 44 38 33 35 36 30 26 27 31 32 44 55 63 65 60 65 65 68 74 83 70 72 62 69 62 55 44 40 50 60 67 66 63 60 59
27 15 7 10 11 15 10 6 12 16 29 32 35 37 33 31 33 42 50 57 61 64 70 72 72 78 81 76 66 68 63 63 60 57 48 42 45 49 58 64 66 63 56 57
33 18 8 8 12 26 33 6 3 8 21 16 23 16 27 52 63 54 42 51 60 76 86 81 74 74 76 69 71 68 61 55 59 53 51 41 47 54 65 67 63 58 61 59
10 12 7 5 9 8 5 5 6 1 22 5 17 29 47 53 28 29 65 70 80 81 69 70 73 70 67 60 56 56 54 60 57 55 49 37 48 59 61 59 58 64 64 66
7 7 20 20 12 14 5 6 4 10 8 28 48 56 34 25 49 82 84 76 77 72 71 68 65 65 62 56 48 51 52 66 56 46 44 35 50 51 51 53 66 68 69 73
4 5 6 6 10 14 9 6 10 25 55 57 53 50 59 72 83 87 71 81 73 73 68 68 61 61 53 48 45 50 52 54 49 48 36 42 53 58 50 57 69 73 81 73
6 8 4 10 10 15 23 33 50 50 54 58 48 55 63 82 77 67 82 69 74 71 66 63 59 53 54 43 44 50 49 47 46 37 31 59 59 55 54 68 80 80 79 73
7 5 11 12 13 25 38 57 56 54 62 64 54 60 74 76 69 76 70 70 71 68 66 65 60 51 54 44 45 47 36 39 34 29 55 58 60 60 76 86 83 86 76 73
19 12 13 23 34 34 33 45 52 58 57 63 60 71 70 68 63 67 69 70 69 66 69 69 65 57 53 48 45 37 38 35 35 64 64 65 69 82 86 84 72 66 62 51
4 6 4 8 38 41 44 62 68 57 71 73 68 65 56 55 60 63 66 67 68 74 76 70 59 53 48 48 38 21 31 31 43 67 72 84 83 87 85 83 77 62 46 37
Wind_Direction_500mb
61 220 225 246 235 240 239 242 246 271 186 324 299 299 292 287 283 253 232 256 275 279 281 281 286 286 287 275 268 270 256 253 249 252 247 241 243 245 246 242 242 247 249 239
221 236 211 237 184 193 204 211 225 291 290 312 308 303 291 285 273 268 273 247 283 289 268 291 297 293 283 281 278 274 281 266 260 258 260 255 253 251 249 249 249 246 246 244
235 270 186 215 167 172 186 204 190 265 310 274 305 290 168 319 273 232 316 311 293 297 315 327 321 305 302 289 281 277 274 274 263 265 264 257 253 252 252 250 251 249 247 248
249 191 191 185 226 205 209 199 202 239 295 299 328 292 263 240 334 149 18 356 338 314 302 312 324 331 325 317 296 279 276 272 267 265 266 266 254 253 253 255 257 253 252 248
309 194 193 232 230 189 159 158 223 275 287 281 237 250 261 213 257 212 328 326 340 351 348 345 338 341 334 327 321 298 277 266 267 265 264 268 266 255 249 252 254 254 252 254
263 226 237 246 125 170 136 167 118 148 243 252 183 257 185 209 217 240 313 322 316 329 346 331 330 335 336 327 316 312 288 274 268 268 264 264 266 263 254 249 245 250 254 257
238 220 223 198 164 140 167 201 290 239 211 282 130 284 260 241 240 257 293 302 314 328 329 328 327 328 331 330 323 313 295 280 274 267 262 261 262 264 258 250 252 251 250 252
251 243 180 181 227 196 171 209 252 288 268 295 230 248 232 183 263 283 297 310 327 337 333 322 319 318 328 332 328 314 297 282 274 269 261 258 257 258 260 249 246 249 250 249
273 235 303 78 7 222 147 214 356 260 298 274 246 262 261 260 230 283 339 346 348 342 336 331 318 312 318 320 321 314 299 286 278 273 268 259 256 255 259 253 246 245 246 250
338 276 18 42 87 89 255 146 183 178 258 257 255 273 255 278 299 306 312 325 337 339 331 330 318 316 321 318 321 314 307 302 292 281 274 265 258 253 254 251 244 240 245 250
79 252 210 170 229 253 207 206 160 244 235 265 293 259 231 247 290 304 301 313 321 325 321 324 315 308 312 317 320 314 308 304 313 293 275 267 258 252 252 250 240 236 233 226
191 273 247 246 163 276 259 250 220 228 221 236 282 269 219 245 289 307 307 306 308 307 308 311 310 309 308 306 310 320 306 298 305 312 286 271 258 251 248 247 235 220 219 223
168 216 278 243 160 94 222 206 220 230 243 242 256 249 151 260 283 303 299 302 300 299 306 311 308 304 299 301 305 310 306 304 296 308 295 271 259 251 244 243 230 218 220 223
268 243 237 253 273 174 236 217 218 227 243 256 245 273 279 283 290 298 294 292 293 302 305 311 306 297 295 301 302 300 308 303 295 299 297 278 259 248 242 239 227 220 220 223
233 256 250 257 264 264 263 269 260 249 250 249 266 266 275 278 291 297 296 294 300 300 302 310 306 295 300 307 310 301 298 300 298 294 293 281 265 250 240 231 222 218 219 222
190 264 285 262 260 255 265 265 262 258 260 259 260 265 269 279 282 279 295 301 297 303 302 300 296 292 294 301 307 302 297 296 298 292 289 278 273 250 232 220 216 212 215 210
267 265 285 275 287 281 267 251 252 254 250 249 257 267 286 291 289 288 289 295 296 303 304 297 298 291 295 297 300 296 292 294 297 298 289 269 259 237 213 208 207 202 195 193
244 243 237 284 289 251 268 293 260 259 255 254 263 280 303 306 299 295 294 295 299 303 300 296 295 293 293 297 292 295 288 288 293 297 290 275 241 214 198 187 184 182 185 188
220 212 236 240 220 294 286 270 285 243 285 304 285 313 316 311 305 292 295 301 299 301 296 293 292 290 292 292 295 294 286 285 289 294 282 283 220 198 183 177 176 178 178 179
159 224 219 246 274 269 357 94 118 313 270 131 330 312 317 313 294 296 307 302 295 297 291 290 293 291 289 287 288 292 281 279 281 285 284 275 215 197 182 177 176 174 177 174
147 177 223 244 260 274 334 147 176 256 350 323 312 310 297 283 289 301 302 299 297 294 293 291 291 289 289 289 286 279 278 273 283 278 272 249 210 198 193 181 178 174 171 166
239 229 226 228 245 264 145 214 279 318 304 299 302 296 296 296 300 300 293 297 294 295 293 294 289 287 285 284 282 275 269 277 282 273 259 224 204 198 193 191 177 170 160 158
256 224 263 224 248 290 277 280 292 291 289 298 296 295 299 305 298 293 295 295 298 294 292 291 288 285 288 282 276 277 279 276 277 254 234 198 198 198 189 181 166 158 159 162
276 267 251 291 271 273 298 299 298 300 299 301 291 296 305 300 290 292 296 297 296 296 295 296 292 284 281 275 270 272 264 267 242 251 187 184 181 179 167 161 160 159 162 163
282 296 258 270 286 310 289 302 305 307 305 303 293 302 301 294 293 294 293 294 294 296 298 299 296 293 282 274 269 255 258 226 212 167 162 166 163 159 152 150 155 159 161 167
266 267 270 276 288 284 287 309 308 312 314 307 302 305 302 298 293 295 294 297 299 301 307 307 305 292 273 265 257 241 201 207 155 151 149 152 151 149 151 153 153 156 153 150
Wind_Speed_850mb
2 10 14 12 19 7 5 6 8 5 3 19 20 26 24 32 28 25 25 30 26 17 20 21 25 27 30 24 21 21 31 30 39 42 45 57 66 78 90 91 87 85 82 62
7 15 9 8 6 11 12 10 9 11 11 14 26 34 30 27 20 20 14 13 30 33 21 29 35 32 33 37 33 28 21 28 36 43 46 49 51 58 65 76 89 95 86 76
12 2 8 6 9 13 9 12 9 9 10 13 19 25 3 7 14 6 11 11 14 18 20 21 20 28 34 37 41 42 37 29 32 37 41 47 52 57 57 63 73 91 93 90
10 2 12 7 11 13 14 15 8 8 11 14 5 13 13 7 9 12 19 15 17 16 16 22 28 27 28 29 32 44 48 45 36 34 39 48 59 64 64 63 65 64 77 89
1 10 14 14 8 13 2 10 5 7 18 9 11 11 2 11 11 14 15 10 20 17 15 21 22 36 42 40 38 37 42 53 51 45 41 45 54 68 72 71 72 75 76 84
23 5 7 9 8 6 11 7 1 1 5 10 3 8 8 12 15 9 18 22 27 22 28 31 34 41 43 41 40 43 42 44 53 53 51 51 53 58 72 80 82 80 79 80
11 9 3 7 11 6 7 1 8 7 8 5 5 15 18 15 22 21 25 36 25 28 39 41 41 42 42 46 45 45 44 46 44 51 59 59 59 55 65 76 87 91 78 77
13 16 14 8 9 9 8 6 6 9 8 12 9 17 4 9 12 24 30 23 20 32 34 33 38 38 38 49 52 50 46 49 50 50 54 60 64 61 60 71 77 83 78 74
6 12 1 6 3 5 9 12 5 9 3 12 12 14 18 19 15 8 7 7 27 38 43 37 31 24 35 48 54 55 46 49 50 53 54 58 66 65 61 63 77 79 76 75
12 10 2 5 3 2 10 17 6 4 8 11 12 23 18 16 20 11 14 21 31 40 43 45 26 25 31 40 49 53 51 49 44 50 54 56 60 68 66 64 78 82 80 67
6 8 5 8 13 28 12 12 4 4 7 8 12 10 7 10 14 21 23 25 37 44 40 42 35 32 33 40 44 54 57 48 43 41 49 57 57 65 71 66 70 66 57 48
19 9 20 21 6 7 11 20 22 14 13 10 9 21 8 18 10 12 34 51 48 41 44 42 37 40 40 39 48 55 59 59 55 50 45 54 56 63 74 69 65 52 49 50
8 8 6 6 3 3 10 16 19 17 7 25 20 19 8 12 30 52 51 49 44 40 43 47 48 48 46 44 47 52 55 61 63 61 50 52 58 65 74 72 64 57 57 56
4 10 18 20 19 1 11 12 20 27 20 28 39 64 46 50 48 41 47 39 34 39 40 52 56 49 47 50 52 55 59 55 70 65 61 56 60 64 72 73 72 65 63 57
10 23 28 37 38 34 37 36 37 40 43 38 44 52 47 46 41 42 35 32 40 41 45 51 49 45 49 54 62 61 61 57 68 67 68 61 53 61 68 75 75 69 60 55
6 12 9 27 22 27 39 44 50 50 48 48 53 57 57 57 48 30 33 33 41 51 60 57 50 53 56 62 70 70 70 63 64 67 66 54 40 52 67 73 72 66 59 55
8 10 11 23 13 15 25 50 50 44 38 33 35 36 30 26 27 31 32 44 55 63 65 60 65 65 68 74 83 70 72 62 69 62 55 44 40 50 60 67 66 63 60 59
27 15 7 10 11 15 10 6 12 16 29 32 35 37 33 31 33 42 50 57 61 64 70 72 72 78 81 76 66 68 63 63 60 57 48 42 45 49 58 64 66 63 56 57
33 18 8 8 12 26 33 6 3 8 21 16 23 16 27 52 63 54 42 51 60 76 86 81 74 74 76 69 71 68 61 55 59 53 51 41 47 54 65 67 63 58 61 59
10 12 7 5 9 8 5 5 6 1 22 5 17 29 47 53 28 29 65 70 80 81 69 70 73 70 67 60 56 56 54 60 57 55 49 37 48 59 61 59 58 64 64 66
7 7 20 20 12 14 5 6 4 10 8 28 48 56 34 25 49 82 84 76 77 72 71 68 65 65 62 56 48 51 52 66 56 46 44 35 50 51 51 53 66 68 69 73
4 5 6 6 10 14 9 6 10 25 55 57 53 50 59 72 83 87 71 81 73 73 68 68 61 61 53 48 45 50 52 54 49 48 36 42 53 58 50 57 69 73 81 73
6 8 4 10 10 15 23 33 50 50 54 58 48 55 63 82 77 67 82 69 74 71 66 63 59 53 54 43 44 50 49 47 46 37 31 59 59 55 54 68 80 80 79 73
7 5 11 12 13 25 38 57 56 54 62 64 54 60 74 76 69 76 70 70 71 68 66 65 60 51 54 44 45 47 36 39 34 29 55 58 60 60 76 86 83 86 76 73
19 12 13 23 34 34 33 45 52 58 57 63 60 71 70 68 63 67 69 70 69 66 69 69 65 57 53 48 45 37 38 35 35 64 64 65 69 82 86 84 72 66 62 51
4 6 4 8 38 41 44 62 68 57 71 73 68 65 56 55 60 63 66 67 68 74 76 70 59 53 48 48 38 21 31 31 43 67 72 84 83 87 85 83 77 62 46 37
Wind_Direction_850mb
61 220 225 246 235 240 239 242 246 271 186 324 299 299 292 287 283 253 232 256 275 279 281 281 286 286 287 275 268 270 256 253 249 252 247 241 243 245 246 242 242 247 249 239
221 236 211 237 184 193 204 211 225 291 290 312 308 303 291 285 273 268 273 247 283 289 268 291 297 293 283 281 278 274 281 266 260 258 260 255 253 251 249 249 249 246 246 244
235 270 186 215 167 172 186 204 190 265 310 274 305 290 168 319 273 232 316 311 293 297 315 327 321 305 302 289 281 277 274 274 263 265 264 257 253 252 252 250 251 249 247 248
249 191 191 185 226 205 209 199 202 239 295 299 328 292 263 240 334 149 18 356 338 314 302 312 324 331 325 317 296 279 276 272 267 265 266 266 254 253 253 255 257 253 252 248
309 194 193 232 230 189 159 158 223 275 287 281 237 250 261 213 257 212 328 326 340 351 348 345 338 341 334 327 321 298 277 266 267 265 264 268 266 255 249 252 254 254 252 254
263 226 237 246 125 170 136 167 118 148 243 252 183 257 185 209 217 240 313 322 316 329 346 331 330 335 336 327 316 312 288 274 268 268 264 264 266 263 254 249 245 250 254 257
238 220 223 198 164 140 167 201 290 239 211 282 130 284 260 241 240 257 293 302 314 328 329 328 327 328 331 330 323 313 295 280 274 267 262 261 262 264 258 250 252 251 250 252
251 243 180 181 227 196 171 209 252 288 268 295 230 248 232 183 263 283 297 310 327 337 333 322 319 318 328 332 328 314 297 282 274 269 261 258 257 258 260 249 246 249 250 249
273 235 303 78 7 222 147 214 356 260 298 274 246 262 261 260 230 283 339 346 348 342 336 331 318 312 318 320 321 314 299 286 278 273 268 259 256 255 259 253 246 245 246 250
338 276 18 42 87 89 255 146 183 178 258 257 255 273 255 278 299 306 312 325 337 339 331 330 318 316 321 318 321 314 307 302 292 281 274 265 258 253 254 251 244 240 245 250
79 252 210 170 229 253 207 206 160 244 235 265 293 259 231 247 290 304 301 313 321 325 321 324 315 308 312 317 320 314 308 304 313 293 275 267 258 252 252 250 240 236 233 226
191 273 247 246 163 276 259 250 220 228 221 236 282 269 219 245 289 307 307 306 308 307 308 311 310 309 308 306 310 320 306 298 305 312 286 271 258 251 248 247 235 220 219 223
168 216 278 243 160 94 222 206 220 230 243 242 256 249 151 260 283 303 299 302 300 299 306 311 308 304 299 301 305 310 306 304 296 308 295 271 259 251 244 243 230 218 220 223
268 243 237 253 273 174 236 217 218 227 243 256 245 273 279 283 290 298 294 292 293 302 305 311 306 297 295 301 302 300 308 303 295 299 297 278 259 248 242 239 227 220 220 223
233 256 250 257 264 264 263 269 260 249 250 249 266 266 275 278 291 297 296 294 300 300 302 310 306 295 300 307 310 301 298 300 298 294 293 281 265 250 240 231 222 218 219 222
190 264 285 262 260 255 265 265 262 258 260 259 260 265 269 279 282 279 295 301 297 303 302 300 296 292 294 301 307 302 297 296 298 292 289 278 273 250 232 220 216 212 215 210
267 265 285 275 287 281 267 251 252 254 250 249 257 267 286 291 289 288 289 295 296 303 304 297 298 291 295 297 300 296 292 294 297 298 289 269 259 237 213 208 207 202 195 193
244 243 237 284 289 251 268 293 260 259 255 254 263 280 303 306 299 295 294 295 299 303 300 296 295 293 293 297 292 295 288 288 293 297 290 275 241 214 198 187 184 182 185 188
220 212 236 240 220 294 286 270 285 243 285 304 285 313 316 311 305 292 295 301 299 301 296 293 292 290 292 292 295 294 286 285 289 294 282 283 220 198 183 177 176 178 178 179
159 224 219 246 274 269 357 94 118 313 270 131 330 312 317 313 294 296 307 302 295 297 291 290 293 291 289 287 288 292 281 279 281 285 284 275 215 197 182 177 176 174 177 174
147 177 223 244 260 274 334 147 176 256 350 323 312 310 297 283 289 301 302 299 297 294 293 291 291 289 289 289 286 279 278 273 283 278 272 249 210 198 193 181 178 174 171 166
239 229 226 228 245 264 145 214 279 318 304 299 302 296 296 296 300 300 293 297 294 295 293 294 289 287 285 284 282 275 269 277 282 273 259 224 204 198 193 191 177 170 160 158
256 224 263 224 248 290 277 280 292 291 289 298 296 295 299 305 298 293 295 295 298 294 292 291 288 285 288 282 276 277 279 276 277 254 234 198 198 198 189 181 166 158 159 162
276 267 251 291 271 273 298 299 298 300 299 301 291 296 305 300 290 292 296 297 296 296 295 296 292 284 281 275 270 272 264 267 242 251 187 184 181 179 167 161 160 159 162 163
282 296 258 270 286 310 289 302 305 307 305 303 293 302 301 294 293 294 293 294 294 296 298 299 296 293 282 274 269 255 258 226 212 167 162 166 163 159 152 150 155 159 161 167
266 267 270 276 288 284 287 309 308 312 314 307 302 305 302 298 293 295 294 297 299 301 307 307 305 292 273 265 257 241 201 207 155 151 149 152 151 149 151 153 153 156 153 150